Weather in Selebi Phikwe

Botswana     21°58′28″S   27°50′22″E
temp.,
°C
wind,
m/s
gust,
m/s
humid.,
%
clouds,
%
prec.,
mm/h
press.,
hPa
HPBL,
m
27 february, sat
sat2723:00+19e612881 0.0 1013630
02:00+18e613850 0.0 1014806
05:00+18e7128557 0.1 1013932
08:00+19e7128273 0.2 1016963
11:00+22e7106988 0.3 10151124
14:00+24ene796277 0.8 10121152
17:00+22e796870 0.4 10121122
20:00+18e4108555 0.4 1015648
28 february, sun
sun2823:00+17ene312901 0.0 1017608
02:00+16e312921 0.0 1016638
05:00+18e6108670 0.1 1015853
08:00+18e6108076 0.1 1017853
11:00+22e796174 0.1 10171153
14:00+25e684948 0.1 10141595
17:00+24e684721 0.0 10131789
20:00+20ene4116329 0.0 1016532
1 march, mon
mon123:00+17ene38770 0.0 1018318
02:00+17e311849 0.0 1018802
05:00+15e4129327 0.0 1018720
08:00+17e697520 0.0 1020923
11:00+22e68543 0.0 10191322
14:00+25ese56461 0.0 10161583
17:00+24e56480 0.0 10141572
20:00+19ese37600 0.0 1016195
2 march, tue
tue223:00+17ene412780 0.0 1018475
02:00+16ene311920 0.0 1018518
05:00+15e29975 0.0 1018461
08:00+18e478122 0.0 1019650
11:00+23ese455883 0.0 10181112
14:00+27ese454252 0.0 10151879
17:00+25se454739 0.0 10131697
20:00+20sw116122 0.0 101423
3 march, wed
wed323:00+19sw11660 0.0 101623
02:00+17ene23720 0.0 101540
05:00+16ene23790 0.0 101660
08:00+20ene35680 0.0 1016452
11:00+26ene33480 0.0 10141226
14:00+29se34360 0.0 10112137
17:00+29ese33350 0.0 10092329
20:00+23ese22490 0.0 101123